Tracking 19634 objects as of 22-May-2019
HD Live streaming from Space Station
objects crossing your sky now

OPS 9317 (IDSCS 7)

Track OPS 9317 (IDSCS 7) now!
OPS 9317 (IDSCS 7) is classified as:


NORAD ID: 2221
Int'l Code: 1966-053H
Perigee: 33,740.7 km
Apogee: 34,339.0 km
Inclination: 3.5 °
Period: 1,347.4 minutes
Semi major axis: 40410 km
RCS: 0.2512 m2 (medium)
Launch date: June 16, 1966
Source: United States (US)
Launch site: AIR FORCE EASTERN TEST RANGE (AFETR)
aabbcc
Your satellite tracking list
Your tracking list is empty




NASA's NSSDC Master Catalog

Two Line Element Set (TLE):
1  2221U 66053H   19139.39008761 -.00000117  00000-0  00000+0 0  9993
2  2221   3.5423  60.9324 0074026 105.6095 254.8722  1.06870180206341
Source of the keplerian elements: AFSPC